User: anonymous   Login
Location: Unspecified
(0.0000°N, 0.0000°E)
Time: 13:25:16
(UTC+00:00)
Language:

Nimbus 3 - Orbit

View from above orbital plane
View from above orbital plane
View from above satellite
View from above satellite

Ground track
Ground track

The orbit data is extracted from the following two-line orbital elements,

1 03890U 69037A   21015.75397962 -.00000011  00000-0  57544-4 0  9994
2 03890  99.8963 285.0979 0040087 109.1475 258.6725 13.42539112535292
Epoch (UTC): 15 January 2021 18:05:43
Eccentricity: 0.0040087
inclination: 99.8963°
perigee height: 1070 km
apogee height: 1130 km
right ascension of ascending node: 285.0979°
argument of perigee: 109.1475°
revolutions per day: 13.42539112
mean anomaly at epoch: 258.6725°
orbit number at epoch: 53529

The dashed part of the orbit path shows where the satellite is in the earth's shadow,  

DLR